[[{"header":{"parameterUnit":"m.s-1","parameterCategory":1,"la1":30.2991,"la2":30.254,"lo1":-89.0895,"lo2":-89.0444,"dy":0.0017,"dx":0.0017,"nx":28,"ny":28,"refTime":"2026-01-30T09:00:00:Z","depth":0,"parameterNumber":2,"parameterNumberName":"U-component_of_WINDS"},"data":[0,0,0,0,0,0,0,0,0,0,0,0,0,0,0,0,0,0,0,0,0,0,0,0,0,0,0,0,0,0,0,0,0,0,0,0,0,0,0,0,0,0,0,0,0,0,0,0,0,0,0,0,0,0,0,0,0,0,2.1984,2.1984,0,2.2051,2.2052,2.2052,2.2044,2.2043,2.2042,2.2041,2.2111,2.2113,2.2116,0,0,0,0,0,0,0,0,0,0,0,0,0,2.1851,2.1853,2.1983,2.1984,2.1985,2.2051,2.2052,2.2053,2.2044,2.2043,2.2042,2.204,2.211,2.2113,2.2117,0,0,0,0,0,0,0,0,0,0,0,0,0,2.1913,2.1854,2.1983,2.1989,2.199,2.2051,2.2052,2.2053,2.2045,2.2043,2.2041,2.204,2.2109,2.2113,2.2117,2.2177,0,0,2.213,2.2132,0,0,0,0,0,0,0,0,2.1909,2.1917,2.1987,2.1989,2.199,2.2037,2.2031,2.2094,2.2045,2.2024,2.2041,2.2039,2.2088,2.2094,2.211,2.218,2.2183,2.2131,2.2133,2.2135,2.2136,0,0,0,0,0,0,0,2.1905,2.1914,2.201,2.1988,2.199,2.1989,2.1996,2.2043,2.2064,2.2026,2.2025,2.2033,2.2088,2.2106,2.2111,2.2184,2.2131,2.2134,2.2137,2.2139,2.2311,2.2312,0,0,0,0,0,0,2.1899,2.1911,2.2008,2.2012,2.1945,2.1993,2.2001,2.2024,2.2064,2.2068,2.2035,2.2033,2.2099,2.2106,2.2114,2.2189,2.2135,2.2139,2.2142,2.2309,2.2311,2.2313,0,0,0,0,0,0,2.1896,2.1908,2.2005,2.1962,2.1974,2.1997,2.2023,2.2026,2.2044,2.207,2.2074,2.2048,2.2098,2.2108,2.2162,2.2191,2.2141,2.2145,2.2306,2.2309,2.2312,2.2337,0,0,0,0,0,0,2.1892,2.1907,2.1928,2.1962,2.1976,2.2051,2.2025,2.2029,2.2051,2.2049,2.2084,2.2089,2.2098,2.2156,2.2166,2.2196,2.2148,2.2304,2.2308,2.2311,2.2333,2.234,2.2346,0,0,0,0,0,2.1887,2.1932,2.1929,2.1941,2.2004,2.2053,2.2061,2.207,2.2053,2.2076,2.2094,2.2088,2.2186,2.2161,2.2173,2.2204,2.2302,2.2307,2.2311,2.2331,2.2339,2.2346,0,0,0,0,0,0,2.19,2.1936,2.1934,2.199,2.2019,2.2051,2.208,2.2078,2.2111,2.2108,2.2119,2.2127,2.2182,2.2199,2.217,2.2266,2.2242,2.2249,2.2253,2.2261,2.2267,2.2262,2.2152,0,0,0,0,0,2.1909,2.1945,2.1975,2.2022,2.2037,2.2056,2.2078,2.2083,2.2113,2.2124,2.2146,2.2176,2.2214,2.2238,2.2275,2.2336,2.2345,2.2364,2.2371,2.2375,2.2381,2.2419,2.2428,2.2328,2.2328,2.2328,0,0,2.1929,2.1953,2.1975,2.2026,2.2048,2.2087,2.2066,2.2107,2.2136,2.2131,2.2183,2.2201,2.2235,2.2294,2.2321,2.231,2.2412,2.2381,2.2385,2.2388,2.2424,2.2434,2.2442,2.2331,2.233,2.233,0,0,2.1984,2.2006,2.2048,2.2072,2.2107,2.212,2.2131,2.2165,2.2176,2.223,2.2228,2.2263,2.2327,2.2353,2.2374,2.2444,2.244,2.2456,2.2488,2.2524,2.2532,2.2539,2.2566,2.2575,2.2462,2.2462,2.2462,0,2.2004,2.2061,2.2071,2.2113,2.2136,2.2135,2.2179,2.2202,2.2247,2.2264,2.2251,2.2334,2.2357,2.2423,2.2441,2.2457,2.2471,2.2451,2.253,2.2537,2.2544,2.257,2.258,2.2464,2.2463,2.2463,2.2463,0,2.2085,2.2124,2.2155,2.22,2.2227,2.227,2.2288,2.2314,2.2318,2.2334,2.239,2.2418,2.2461,2.2478,2.2481,2.2546,2.2538,2.2528,2.2503,2.2555,2.258,2.2589,2.2466,2.2465,2.2465,2.2464,0,0,2.2146,2.2199,2.221,2.2231,2.2272,2.2303,2.2348,2.2391,2.2415,2.2447,2.2486,2.2543,2.2534,2.2559,2.2566,2.2597,2.2654,2.2583,2.2585,2.2597,2.273,2.2738,2.2749,2.2652,2.2654,2.2656,2.2728,0,2.2206,2.2284,2.2297,2.2366,2.2404,2.2406,2.2445,2.2475,2.2492,2.2528,2.2547,2.2588,2.2573,2.2588,2.2619,2.264,2.2681,2.2635,2.269,2.2692,2.2681,2.2761,2.2769,2.2835,2.2737,2.2739,2.274,0,2.2286,2.2321,2.2395,2.2433,2.245,2.2485,2.2527,2.2561,2.2597,2.2607,2.2637,2.2641,2.269,2.2664,2.2733,2.2702,2.2726,2.274,2.2743,2.2748,2.2719,2.277,2.2856,2.2867,2.2755,2.2754,2.2752,0,2.2325,2.2392,2.2445,2.2463,2.2509,2.2534,2.2555,2.2589,2.2615,2.2653,2.267,2.2713,2.2736,2.277,2.2787,2.2767,2.2856,2.2831,2.2867,2.2867,2.2885,2.2883,2.2977,2.29,2.29,2.2899,2.2899,0,2.2391,2.2436,2.2464,2.2496,2.2548,2.2563,2.2615,2.2635,2.2666,2.2704,2.2708,2.2744,2.2764,2.2804,2.2818,2.2874,2.2884,2.2895,2.2898,2.2895,2.2894,2.291,2.2906,2.2902,2.2901,2.2901,2.2901,0,2.2442,2.2463,2.2521,2.2561,2.2572,2.2609,2.2644,2.2677,2.2695,2.2744,2.2756,2.2785,2.2832,2.2853,2.2911,2.292,2.2985,2.2985,2.2973,2.2974,2.3009,2.3006,2.3117,2.3133,2.3045,2.3045,2.3046,0,2.2482,2.2518,2.2562,2.2588,2.261,2.2651,2.2679,2.2697,2.2725,2.2771,2.2799,2.2847,2.2886,2.2962,2.2989,2.3035,2.3036,2.3072,2.3042,2.3039,2.3038,2.3036,2.304,2.3077,2.3078,2.3078,2.3079,0,2.2552,2.2562,2.2601,2.2645,2.2678,2.2714,2.2748,2.277,2.2793,2.2826,2.2875,2.2905,2.2966,2.3015,2.3063,2.3085,2.3087,2.3088,2.3099,2.3096,2.3088,2.3095,2.2988,2.3085,2.3085,2.3084,2.3084,2.3084,2.26,2.2633,2.267,2.2715,2.2743,2.2777,2.2811,2.2834,2.2875,2.2926,2.2935,2.2988,2.3027,2.3091,2.3116,2.3159,2.3151,2.3166,2.317,2.3174,2.3177,2.3082,2.3168,2.3168,2.3168,2.3168,2.3168,0,2.2671,2.2696,2.2737,2.2787,2.2823,2.2822,2.2862,2.2892,2.2939,2.2975,2.3014,2.3072,2.312,2.3152,2.3201,2.323,2.3232,2.3242,2.324,2.3246,2.3181,2.3167,2.324,2.324,2.324,2.324,2.324,2.324,2.2712,2.2768,2.2783,2.2854,2.2879,2.2931,2.2954,2.2986,2.3015,2.308,2.312,2.3141,2.3177,2.3229,2.3274,2.3283,2.3301,2.3312,2.332,2.3258,2.325,2.3243,2.323,2.3315,2.3315,2.3382,2.3383,2.3383]},{"header":{"parameterUnit":"m.s-1","parameterCategory":1,"la1":30.2991,"la2":30.254,"lo1":-89.0895,"lo2":-89.0444,"dy":0.0017,"dx":0.0017,"nx":28,"ny":28,"refTime":"2026-01-30T09:00:00:Z","depth":0,"parameterNumber":3,"parameterNumberName":"V-component_of_WINDS"},"data":[0,0,0,0,0,0,0,0,0,0,0,0,0,0,0,0,0,0,0,0,0,0,0,0,0,0,0,0,0,0,0,0,0,0,0,0,0,0,0,0,0,0,0,0,0,0,0,0,0,0,0,0,0,0,0,0,0,0,-5.3912,-5.3912,0,-5.3923,-5.3924,-5.3924,-5.3867,-5.3866,-5.3864,-5.3862,-5.3872,-5.3873,-5.3875,0,0,0,0,0,0,0,0,0,0,0,0,0,-5.3839,-5.384,-5.3912,-5.3912,-5.3912,-5.3923,-5.3924,-5.3924,-5.3867,-5.3865,-5.3863,-5.3862,-5.3871,-5.3873,-5.3875,0,0,0,0,0,0,0,0,0,0,0,0,0,-5.3862,-5.3841,-5.3912,-5.3885,-5.3883,-5.3923,-5.3924,-5.3924,-5.3868,-5.3865,-5.3863,-5.3861,-5.387,-5.3873,-5.3875,-5.3941,0,0,-5.3884,-5.3885,0,0,0,0,0,0,0,0,-5.3861,-5.3865,-5.3889,-5.3887,-5.3885,-5.3891,-5.3901,-5.3929,-5.3868,-5.3874,-5.3862,-5.3859,-5.388,-5.3882,-5.3889,-5.3941,-5.3942,-5.3884,-5.3885,-5.3887,-5.3887,0,0,0,0,0,0,0,-5.3859,-5.3864,-5.3916,-5.3889,-5.3887,-5.3872,-5.3873,-5.3906,-5.389,-5.3873,-5.3869,-5.3871,-5.3878,-5.3887,-5.3889,-5.3942,-5.3884,-5.3886,-5.3888,-5.3889,-5.4048,-5.4051,0,0,0,0,0,0,-5.3862,-5.3863,-5.3916,-5.3917,-5.3867,-5.3876,-5.3876,-5.3892,-5.389,-5.3887,-5.3873,-5.3869,-5.3883,-5.3886,-5.3889,-5.3965,-5.3887,-5.3889,-5.3891,-5.4046,-5.4049,-5.4052,0,0,0,0,0,0,-5.386,-5.3867,-5.3915,-5.3889,-5.3894,-5.388,-5.3897,-5.3893,-5.3901,-5.389,-5.3887,-5.3885,-5.3882,-5.3885,-5.3929,-5.3965,-5.389,-5.3893,-5.4043,-5.4047,-5.405,-5.4118,0,0,0,0,0,0,-5.3858,-5.3867,-5.3892,-5.389,-5.3896,-5.3955,-5.3899,-5.3895,-5.3907,-5.39,-5.39,-5.3898,-5.388,-5.3925,-5.3931,-5.3967,-5.3895,-5.4039,-5.4044,-5.4049,-5.4112,-5.4124,-5.4133,0,0,0,0,0,-5.3856,-5.3909,-5.3893,-5.39,-5.3927,-5.3958,-5.3961,-5.394,-5.391,-5.3934,-5.3927,-5.3898,-5.396,-5.393,-5.3936,-5.3973,-5.4037,-5.4043,-5.4049,-5.4108,-5.4121,-5.4133,0,0,0,0,0,0,-5.3914,-5.3909,-5.389,-5.3945,-5.3953,-5.3948,-5.3978,-5.3955,-5.397,-5.3964,-5.3937,-5.3938,-5.3985,-5.3984,-5.395,-5.4037,-5.3993,-5.4001,-5.4036,-5.4049,-5.4059,-5.4058,-5.3897,0,0,0,0,0,-5.3934,-5.396,-5.3954,-5.4002,-5.4007,-5.3993,-5.4005,-5.3989,-5.3995,-5.3997,-5.3993,-5.4,-5.4021,-5.4035,-5.4053,-5.4113,-5.4111,-5.4141,-5.4152,-5.4161,-5.4167,-5.4198,-5.4211,-5.4071,-5.4071,-5.4071,0,0,-5.3973,-5.3974,-5.3992,-5.4014,-5.4018,-5.4045,-5.3995,-5.4026,-5.4046,-5.4002,-5.4042,-5.404,-5.4045,-5.4097,-5.4119,-5.4097,-5.4206,-5.4168,-5.4175,-5.4177,-5.4206,-5.4219,-5.4231,-5.4075,-5.4075,-5.4074,0,0,-5.4059,-5.4063,-5.4104,-5.4109,-5.4116,-5.4107,-5.4117,-5.4116,-5.4113,-5.4154,-5.4122,-5.4145,-5.4182,-5.4187,-5.4195,-5.4286,-5.4259,-5.4293,-5.4347,-5.4377,-5.4388,-5.4398,-5.4429,-5.4441,-5.4299,-5.4299,-5.43,0,-5.4107,-5.4148,-5.4128,-5.4161,-5.4172,-5.4135,-5.4176,-5.4182,-5.4195,-5.4203,-5.4178,-5.4224,-5.4225,-5.4278,-5.43,-5.4308,-5.4318,-5.4291,-5.4389,-5.4398,-5.4407,-5.4436,-5.4449,-5.4303,-5.4303,-5.4303,-5.4302,0,-5.4207,-5.4236,-5.4268,-5.4282,-5.4297,-5.4334,-5.4319,-5.4336,-5.432,-5.4312,-5.4355,-5.4355,-5.4373,-5.4385,-5.4368,-5.4435,-5.4421,-5.4393,-5.4348,-5.4424,-5.4452,-5.4463,-5.4309,-5.4308,-5.4306,-5.4305,0,0,-5.4327,-5.4332,-5.4344,-5.435,-5.4356,-5.4378,-5.4414,-5.4433,-5.4448,-5.4459,-5.4487,-5.4521,-5.4495,-5.4504,-5.4488,-5.4515,-5.4587,-5.4484,-5.4483,-5.4502,-5.466,-5.4679,-5.4693,-5.457,-5.4572,-5.4574,-5.4659,0,-5.441,-5.4472,-5.4456,-5.4518,-5.4544,-5.4511,-5.4542,-5.4549,-5.4544,-5.4565,-5.4559,-5.4583,-5.4548,-5.4553,-5.4579,-5.4573,-5.4618,-5.4566,-5.4595,-5.4596,-5.4593,-5.4708,-5.4728,-5.4808,-5.467,-5.4671,-5.4673,0,-5.4515,-5.4532,-5.4597,-5.46,-5.461,-5.4638,-5.4655,-5.4676,-5.4684,-5.4678,-5.4689,-5.4668,-5.4703,-5.466,-5.4707,-5.4673,-5.4684,-5.4683,-5.4686,-5.4686,-5.4638,-5.471,-5.4834,-5.4845,-5.469,-5.4688,-5.4687,0,-5.4595,-5.4634,-5.4677,-5.4684,-5.4689,-5.471,-5.4713,-5.4718,-5.4731,-5.4746,-5.4754,-5.4772,-5.4782,-5.4797,-5.4781,-5.4751,-5.4831,-5.4786,-5.4826,-5.4826,-5.4842,-5.4841,-5.4968,-5.4853,-5.4852,-5.4852,-5.4852,0,-5.4689,-5.473,-5.4714,-5.474,-5.4785,-5.4766,-5.4811,-5.481,-5.4815,-5.484,-5.4813,-5.4837,-5.4816,-5.4839,-5.4827,-5.4868,-5.4872,-5.4868,-5.4864,-5.487,-5.487,-5.4875,-5.4868,-5.4855,-5.4855,-5.4854,-5.4853,0,-5.4785,-5.4776,-5.4821,-5.4824,-5.4825,-5.4858,-5.4859,-5.4883,-5.4877,-5.491,-5.4917,-5.4907,-5.4932,-5.4919,-5.4944,-5.4936,-5.4989,-5.4978,-5.4986,-5.4983,-5.5023,-5.5019,-5.5156,-5.5173,-5.5048,-5.5049,-5.505,0,-5.4845,-5.4875,-5.4882,-5.4898,-5.4903,-5.4929,-5.4942,-5.4926,-5.4941,-5.4953,-5.4976,-5.4999,-5.5016,-5.5058,-5.5052,-5.5072,-5.5061,-5.5108,-5.5063,-5.5068,-5.506,-5.5057,-5.506,-5.5116,-5.5117,-5.5118,-5.5119,0,-5.4951,-5.4946,-5.4967,-5.4988,-5.5006,-5.5021,-5.5033,-5.5048,-5.5032,-5.505,-5.5076,-5.509,-5.5117,-5.514,-5.5158,-5.5159,-5.5137,-5.5134,-5.5144,-5.5149,-5.5152,-5.515,-5.5009,-5.513,-5.5129,-5.5128,-5.5128,-5.5127,-5.503,-5.5056,-5.5065,-5.509,-5.5098,-5.5111,-5.5135,-5.5133,-5.5154,-5.5176,-5.5165,-5.5195,-5.5203,-5.5224,-5.5229,-5.5252,-5.5233,-5.5248,-5.5251,-5.5255,-5.526,-5.515,-5.5256,-5.5255,-5.5255,-5.5255,-5.5254,0,-5.5134,-5.5139,-5.5162,-5.5182,-5.5202,-5.5181,-5.5195,-5.5212,-5.524,-5.5249,-5.5268,-5.5298,-5.5321,-5.5318,-5.5339,-5.5358,-5.5348,-5.5364,-5.5361,-5.5362,-5.5276,-5.5265,-5.5372,-5.5372,-5.5371,-5.5371,-5.5371,-5.5371,-5.519,-5.5233,-5.5229,-5.5276,-5.528,-5.5311,-5.532,-5.5332,-5.534,-5.5375,-5.5395,-5.5394,-5.5398,-5.542,-5.5439,-5.5438,-5.5446,-5.5466,-5.546,-5.538,-5.5368,-5.5357,-5.5346,-5.5468,-5.5468,-5.5544,-5.5544,-5.5545]}]]